Location: Copeville
(33.0796°N, 96.4155°W)
Time: 14:21:34
(UTC+00:00)

Cosmos 1328 Rocket - Visible Passes

Search period start: 03 July 2022 00:00
Search period end: 13 July 2022 00:00
Orbit: 602 x 625 km, 82.5° (Epoch: 02 July)

Date Brightness Start Highest point End Pass type
(mag) Time Alt. Az. Time Alt. Az. Time Alt. Az.
03 Jul 4.7 08:26:54 10° NNE 08:30:59 37° E 08:31:30 36° E visible
03 Jul 5.4 10:06:10 10° WNW 10:08:18 13° W 10:08:29 13° W visible
04 Jul 3.6 08:42:16 10° N 08:46:32 74° ENE 08:46:32 74° ENE visible
05 Jul 3.9 08:57:58 10° NNW 09:01:38 50° WNW 09:01:38 50° WNW visible
06 Jul 5.9 07:37:02 10° NNE 07:39:45 18° ENE 07:39:45 18° ENE visible
06 Jul 4.9 09:14:01 10° NNW 09:16:46 26° WNW 09:16:46 26° WNW visible
07 Jul 5.2 07:51:51 10° NNE 07:54:54 30° NE 07:54:54 30° NE visible
07 Jul 5.7 09:30:41 10° NW 09:31:54 14° WNW 09:31:54 14° WNW visible
08 Jul 4.8 08:07:10 10° N 08:10:05 40° NNE 08:10:05 40° NNE visible
09 Jul 4.9 08:22:47 10° NNW 08:25:18 33° NNW 08:25:18 33° NNW visible
10 Jul 6.2 07:02:11 10° NE 07:03:31 14° NE 07:03:31 14° NE visible
10 Jul 5.4 08:38:46 10° NNW 08:40:32 21° NW 08:40:32 21° NW visible
11 Jul 5.8 07:16:50 10° NNE 07:18:47 21° NE 07:18:47 21° NE visible
11 Jul 6.0 08:55:16 10° NW 08:55:48 12° NW 08:55:48 12° NW visible
12 Jul 5.6 07:32:03 10° N 07:34:03 26° NNE 07:34:03 26° NNE visible
